Location: Long Sault Conservation Area
(44.0496°N, 78.7419°W)
Time: 12:36:27
(UTC-04:00)

Daily predictions for brighter satellites

Satellite Brightness Start Highest point End
(mag) Time Altitude Azimuth Time Altitude Azimuth Time Altitude Azimuth
Cosmos 2278 4.5 21:11:53 10° NNW 21:17:15 40° ENE 21:22:33 10° SE
COSMOS 2406 3.7 21:14:38 10° SSW 21:20:20 69° WNW 21:26:03 10° NNE
Cosmos 1743 3.7 21:18:43 10° NNW 21:22:29 49° W 21:26:16 10° S
Okean 1-7 Rocket 3.7 21:19:24 10° S 21:23:47 58° E 21:28:14 10° NNE
YAOGAN 6 2.8 21:20:58 10° SSE 21:24:22 51° ENE 21:27:47 10° N
Cosmos 1606 Rocket 4.2 21:21:59 10° N 21:26:01 38° ENE 21:30:03 10° SE
Okean 2 3.9 21:22:44 10° SSE 21:26:33 40° E 21:30:24 10° NNE
Meteor 1-15 Rocket 4.3 21:25:54 10° N 21:31:28 64° ENE 21:36:59 10° SSE
Cosmos 1025 Rocket 3.0 21:27:38 10° S 21:31:50 62° E 21:36:04 10° NNE
SPOT 5 3.9 21:28:29 10° ESE 21:32:06 26° ENE 21:35:46 10° N
Cosmos 1697 Rocket 3.9 21:27:53 10° N 21:32:42 28° NE 21:37:30 10° ESE
CZ-4B DEB 2.8 21:30:06 10° S 21:33:04 71° WSW 21:36:04 10° NNW
SAR-Lupe-1 4.1 21:29:32 10° SSE 21:33:07 85° WSW 21:36:44 10° NNW
Cosmos 1726 Rocket 4.2 21:30:53 10° N 21:34:58 39° ENE 21:39:01 10° SSE
MOS 1-B Rocket 4.5 21:29:49 10° SE 21:35:29 51° ENE 21:41:57 10° N
Cosmos 2341 Rocket 4.4 21:29:40 10° N 21:35:51 50° ENE 21:42:01 10° SSE
Cosmos 405 3.1 21:33:21 10° NNW 21:36:56 76° W 21:40:27 10° S
Cosmos 2369 4.0 21:32:18 10° NNW 21:37:58 56° ENE 21:43:25 11° SE
Cosmos 1666 3.8 21:36:17 10° NNW 21:39:52 44° W 21:43:27 10° SSW
Cosmos 1452 Rocket 4.5 21:35:18 10° N 21:40:06 34° ENE 21:44:39 11° SE
USA 186 4.3 21:39:10 10° SW 21:41:29 19° W 21:43:45 10° NW
CENTAUR R/B 4.4 21:34:26 10° NW 21:41:32 36° WSW 21:48:56 10° S
COSMOS 2487 3.4 21:38:53 10° SSE 21:42:00 29° ESE 21:45:09 10° NE
MetOp-A 4.4 21:41:33 10° SSE 21:46:47 58° ENE 21:52:03 10° N
ERS-1 Rocket 3.0 21:41:59 10° SSE 21:46:59 75° ENE 21:52:01 10° N
Cosmos 1371 Rocket 4.3 21:43:01 10° NNW 21:48:20 71° WSW 21:53:33 10° S
USA 245 3.8 21:47:12 14° ESE 21:48:25 19° ENE 21:50:07 10° NNE
Cosmos 1833 Rocket 3.4 21:44:53 10° SSE 21:49:48 32° ESE 21:54:45 10° NE
Cosmos 1238 Rocket 4.3 21:44:58 10° SSW 21:51:44 78° W 21:58:02 10° N
ISS -2.3 21:48:38 10° W 21:51:46 40° NNW 21:54:55 10° NE
CRYOSAT 2 4.4 21:47:22 10° S 21:52:13 88° W 21:57:06 10° N
SPOT 1/Viking Rocket 4.4 21:49:30 12° SE 21:53:44 36° ENE 21:58:24 10° N
Cosmos 2058 Rocket 3.5 21:50:34 10° N 21:54:52 48° ENE 21:58:31 14° SSE
Meteor 1-29 4.3 21:57:59 10° N 22:01:11 40° WNW 22:04:21 10° SW
Cosmos 1437 Rocket 3.1 22:01:33 10° NNW 22:05:22 62° W 22:09:13 10° S
YAOGAN 11 4.1 22:02:03 15° SSE 22:05:36 65° ENE 22:09:56 10° N
Cosmos 2181 Rocket 4.1 21:59:46 10° S 22:06:02 64° E 22:12:14 10° NNE
ASTEX 1 3.9 22:02:21 10° S 22:07:11 58° W 22:12:01 10° NNW
Intercosmos 24 4.4 22:03:51 10° NNW 22:07:30 50° W 22:10:58 10° S
Cosmos 1515 3.7 22:09:54 10° S 22:13:41 87° W 22:17:31 10° N
H-2A R/B 3.7 22:11:41 14° ESE 22:14:20 23° ENE 22:17:53 10° NNE
Cosmos 1980 Rocket 3.0 22:16:45 10° NNW 22:22:04 39° ENE 22:25:49 18° ESE
Cosmos 1626 Rocket 4.1 22:21:47 22° SE 22:24:01 38° E 22:28:01 10° NNE
ARGOS 3.2 22:20:51 16° SSE 22:25:18 88° WSW 22:30:46 10° NNW
Cosmos 2228 3.0 22:28:38 10° N 22:32:56 78° W 22:35:49 20° S
TELKOM 3 3.9 22:30:56 10° WNW 22:33:15 43° SSW 22:33:54 35° S
Cosmos 2322 Rocket 4.0 22:29:15 10° N 22:33:31 21° NE 22:37:39 10° E
Cosmos 921 Rocket 3.9 22:29:26 10° NNW 22:33:43 45° WSW 22:37:02 15° S
Cosmos 1953 4.4 22:31:41 10° NNE 22:34:07 15° ENE 22:35:24 13° E
Tiangong 2 1.0 22:35:13 10° W 22:38:22 66° S 22:39:21 39° ESE
SL-8 Rocket 4.0 22:33:07 10° N 22:39:24 88° W 22:44:11 19° S
H-2A R/B 1.9 22:38:01 23° SSE 22:41:09 83° ENE 22:46:15 10° NNW
Cosmos 1766 3.8 22:37:32 10° N 22:41:16 42° ENE 22:42:36 31° SE
Landsat 7 3.9 22:40:01 26° SSE 22:42:36 65° ENE 22:47:20 10° N
Cosmos 2366 rocket 3.9 22:40:09 10° N 22:46:21 78° E 22:50:17 24° SSE
CZ-3A R/B 1.3 22:49:29 10° WSW 22:51:31 31° WNW 22:51:31 31° WNW
Lacrosse 5 rocket 3.3 22:51:35 10° NW 22:55:36 28° NNE 22:59:32 10° E
Meteor 1-4 Rocket 2.9 22:53:23 10° NNW 22:56:54 57° W 22:58:16 32° SSW
Terra 1.9 22:55:30 32° SE 22:57:38 64° ENE 23:02:21 10° N
Cosmos 1602 Rocket 3.4 22:57:24 27° S 22:59:41 89° E 23:04:02 10° N
Cosmos 2082 Rocket 2.6 22:54:56 10° SW 23:00:34 66° WNW 23:06:13 10° NNE
Cosmos 1269 Rocket 4.0 23:01:07 25° S 23:04:15 68° ESE 23:09:32 10° NNE
Cosmos 1420 Rocket 4.1 23:01:14 10° NNW 23:06:28 69° WSW 23:08:59 31° S
DMSP B5D2-2 4.0 23:03:28 10° NNE 23:08:48 85° ESE 23:11:57 25° SSW
Cosmos 1805 3.6 23:06:12 10° N 23:10:00 49° ENE 23:10:42 43° ESE
SPOT 5 4.1 23:07:20 16° SSW 23:10:06 30° W 23:13:58 10° NW
Cosmos 1048 Rocket 3.9 23:08:12 24° SSW 23:11:21 81° ESE 23:16:34 10° NNE
Meteor 2-14 Rocket 4.4 23:06:22 10° N 23:12:29 85° W 23:15:45 29° S
deb Chang Zheng 4 3.6 23:09:02 10° NNE 23:13:18 61° ESE 23:14:26 44° SSE
Meteor 1-22 Rocket 4.4 23:11:15 10° NNW 23:16:30 63° W 23:19:20 28° SSW
Cosmos 1697 Rocket 3.3 23:11:31 10° NW 23:16:54 49° WSW 23:19:38 27° SSW
Cosmos 1758 3.7 23:13:36 10° N 23:17:28 47° ENE 23:18:04 43° ESE
Cosmos 389 Rocket 3.2 23:15:11 10° N 23:18:26 37° ENE 23:18:31 37° ENE
Spot 4 4.0 23:21:37 40° SE 23:23:09 61° ENE 23:27:54 10° N
USA 267 4.2 23:18:07 10° ENE 23:22:58 25° ESE 23:22:58 25° ESE
Lacrosse 5 2.9 23:25:30 28° ESE 23:25:30 28° ESE 23:28:53 10° ENE
CARTOSAT-1 3.7 23:24:03 41° SSW 23:25:24 65° WSW 23:29:43 10° NNW
Cosmos 2360 4.2 23:20:04 10° NNW 23:25:48 83° WSW 23:28:04 38° SSE
Iridium 2 3.6 23:23:17 10° N 23:27:06 83° W 23:27:42 61° S
SL-16 R/B 2.8 23:21:39 10° NNW 23:27:07 46° ENE 23:29:33 29° ESE
Timation 2 Rocket 4.1 23:21:01 10° SSW 23:27:22 73° WNW 23:33:30 10° NNE
ISS -1.2 23:26:16 10° NW 23:28:53 21° N 23:31:29 10° NE
NOSS 3-1 (C) 4.3 23:22:26 10° NNW 23:29:52 65° NE 23:34:52 26° ESE
Cosmos 1833 Rocket 3.9 23:28:21 10° SW 23:33:36 40° WNW 23:38:55 10° NNE
IGS 5A 3.8 23:32:35 42° SSW 23:33:39 55° W 23:37:46 10° NNW
SeaSat 1 4.3 23:30:48 13° E 23:33:43 22° NE 23:37:27 10° N
DELTA 2 DEB (DPAF) 4.2 23:34:36 51° SE 23:35:37 70° ENE 23:40:06 10° N
SL-19 R/B 4.1 23:32:17 10° NNE 23:37:37 79° WNW 23:40:12 31° SSW
ATLAS CENTAUR R/B 1.7 23:34:32 10° NNW 23:38:05 44° NE 23:38:30 42° ENE
Cosmos 1842 3.6 23:38:52 45° SW 23:39:48 60° W 23:43:43 10° N
Cosmos 1271 Rocket 3.3 23:36:04 10° NNW 23:39:52 49° W 23:40:35 43° SW
CZ-4C R/B 3.0 23:45:31 78° ENE 23:45:31 78° ENE 23:49:10 10° N
Cosmos 1758 Rocket 3.4 23:47:43 64° SE 23:48:11 71° E 23:52:33 10° NNE
Cosmos 1733 3.6 23:44:57 10° N 23:48:41 50° ENE 23:48:41 50° ENE
Cosmos 2251 Rocket 3.8 23:47:56 46° SE 23:48:51 51° ESE 23:54:04 10° NNE
Cosmos 1544 3.8 23:45:49 10° NNW 23:49:17 43° W 23:49:33 42° WSW
H-2A R/B 3.1 23:48:48 32° SW 23:50:06 39° W 23:54:21 10° NNW
